Location: Betra
(48.4113°N, 8.6634°E)
Time: 21:12:14
(UTC+00:00)

Okean 1-7 - Pass Details

Date: 23 May 2024
Orbit: 579 x 604 km, 82.5° (Epoch: 16 June)

Event Time Altitude Azimuth Distance (km) Brightness Sun altitude
Exits shadow 01:30:17 23° 240° (WSW) 1,285 4.2 -15.2°
Maximum altitude 01:32:12 34° 287° (WNW) 997 4.0 -15.1°
Drops below altitude 10° 01:36:10 10° 353° (N) 1,958 6.4 -14.7°
Sets 01:38:34 0° 3° (N) 2,869 7.6 -14.5°
